Temperature
5 5 5 5 5 5 5 6 6 6 6 6 6 5 5 5 5 5 5 5 5 5 4 4 4 4 4 4 3 3 3 3 3 3 3 3 3 3 3 3 3 3 3
5 5 5 5 5 5 5 5 5 5 5 5 5 5 5 5 5 5 5 5 4 4 4 4 4 3 3 3 3 3 3 2 2 2 3 3 2 3 3 3 3 3 3
5 4 4 4 4 4 5 5 5 5 5 5 5 4 4 4 4 4 4 4 4 4 4 4 4 3 3 3 3 2 2 2 2 2 2 2 2 2 2 2 2 2 2
4 4 4 4 4 4 4 4 4 4 4 4 4 4 4 4 4 4 4 4 4 4 4 3 3 3 3 3 2 2 2 2 2 2 2 2 2 2 1 2 2 2 2
4 4 4 4 4 4 4 4 4 4 4 4 4 4 4 4 3 3 3 3 3 3 3 3 3 2 2 2 2 2 2 1 1 1 1 1 1 1 1 1 1 1 1
3 3 3 3 3 3 3 3 3 3 3 3 3 3 3 3 3 3 3 3 3 3 3 2 2 2 2 2 2 1 1 1 1 1 1 1 1 0 0 0 0 -0 -0
3 3 3 3 3 3 3 3 3 3 3 3 3 3 3 3 3 3 2 2 2 2 2 2 2 1 1 1 1 1 1 1 1 0 0 0 0 0 -0 -0 -0 -1 -1
2 2 3 3 3 3 3 3 3 2 2 2 2 2 2 2 2 2 2 2 2 2 2 2 1 1 1 1 1 1 1 0 0 0 0 -0 -0 -0 -1 -1 -1 -1 -1
2 2 2 2 2 2 2 2 2 2 2 2 2 2 2 2 2 2 1 1 1 1 1 1 1 1 1 0 0 0 0 0 -0 -0 -0 -0 -1 -1 -1 -1 -1 -2 -2
2 2 2 2 2 2 2 2 2 1 1 1 1 1 1 1 1 1 1 1 1 1 1 1 0 0 0 -0 -0 -0 -0 -0 -0 -0 -0 -1 -1 -1 -1 -2 -2 -2 -2
1 1 1 1 1 1 1 1 1 1 1 1 1 1 1 1 1 1 1 1 1 0 0 0 -0 -0 -0 -1 -1 -1 -1 -1 -1 -1 -1 -1 -1 -1 -2 -2 -2 -2 -2
1 1 1 1 1 1 1 0 0 0 0 0 0 0 0 0 0 0 0 0 0 -0 -0 -0 -0 -1 -1 -1 -1 -1 -1 -1 -1 -1 -1 -1 -1 -2 -2 -2 -2 -2 -2
0 0 0 0 0 0 0 0 -0 -0 -0 -0 -0 -0 -0 -0 -0 -0 -0 -0 -1 -1 -1 -1 -1 -1 -1 -1 -1 -2 -2 -2 -2 -2 -2 -2 -2 -2 -2 -2 -3 -3 -3
-0 -0 0 0 -0 -0 -0 -0 -0 -1 -1 -1 -1 -1 -1 -1 -1 -1 -1 -1 -1 -1 -1 -1 -2 -2 -2 -2 -2 -2 -2 -2 -2 -2 -2 -2 -2 -3 -3 -3 -3 -3 -3
-0 -0 -0 -0 -1 -1 -1 -1 -1 -1 -1 -1 -1 -1 -1 -1 -1 -1 -1 -1 -1 -2 -2 -2 -2 -2 -2 -2 -2 -3 -3 -3 -3 -3 -3 -3 -3 -3 -3 -3 -3 -3 -4
-1 -1 -1 -1 -1 -1 -1 -1 -1 -1 -1 -2 -2 -2 -2 -2 -2 -2 -2 -2 -2 -2 -3 -3 -3 -3 -3 -3 -3 -3 -3 -3 -3 -3 -3 -3 -3 -3 -4 -4 -4 -4 -4
-1 -1 -1 -1 -2 -2 -2 -2 -2 -2 -2 -2 -2 -2 -2 -2 -2 -2 -2 -3 -3 -3 -3 -3 -3 -3 -3 -3 -3 -3 -3 -3 -3 -3 -3 -4 -4 -4 -4 -4 -4 -4 -4
-2 -2 -2 -2 -2 -2 -2 -2 -2 -2 -3 -2 -2 -2 -2 -3 -3 -3 -3 -3 -3 -3 -3 -3 -3 -3 -3 -3 -4 -4 -3 -4 -4 -4 -4 -4 -4 -4 -4 -5 -5 -5 -5
-3 -2 -2 -2 -2 -2 -3 -3 -3 -3 -3 -3 -3 -3 -3 -3 -3 -3 -3 -3 -3 -3 -4 -4 -4 -4 -4 -4 -4 -4 -4 -4 -4 -4 -4 -4 -4 -5 -5 -5 -5 -5 -5
-3 -3 -3 -3 -3 -3 -3 -3 -3 -3 -3 -3 -3 -3 -3 -3 -3 -3 -3 -4 -4 -4 -4 -4 -4 -4 -4 -4 -4 -4 -4 -4 -4 -4 -5 -5 -5 -5 -5 -5 -5 -5 -5
-3 -3 -3 -3 -3 -3 -3 -4 -4 -4 -4 -4 -4 -4 -4 -4 -4 -4 -4 -4 -4 -4 -4 -4 -4 -4 -4 -4 -4 -4 -4 -4 -5 -5 -5 -5 -5 -5 -5 -5 -5 -6 -6
-4 -4 -4 -4 -4 -4 -4 -4 -4 -4 -4 -4 -4 -4 -4 -4 -4 -4 -4 -4 -5 -5 -5 -5 -5 -5 -5 -5 -5 -5 -5 -5 -5 -5 -5 -5 -5 -5 -5 -5 -6 -6 -6
-4 -4 -4 -4 -5 -5 -5 -5 -5 -5 -5 -5 -5 -5 -5 -5 -5 -5 -5 -5 -5 -5 -5 -5 -5 -5 -5 -5 -5 -5 -5 -5 -5 -5 -5 -5 -5 -5 -5 -6 -6 -6 -6
-4 -5 -5 -5 -5 -5 -5 -5 -5 -5 -5 -5 -5 -5 -5 -5 -5 -5 -5 -5 -5 -5 -5 -5 -5 -5 -5 -5 -5 -5 -5 -5 -5 -5 -5 -6 -6 -6 -6 -6 -6 -6 -6
-5 -5 -5 -5 -6 -6 -6 -6 -6 -6 -6 -6 -6 -6 -6 -6 -6 -6 -6 -6 -6 -6 -6 -6 -6 -6 -5 -5 -5 -5 -5 -5 -5 -5 -6 -6 -6 -6 -6 -6 -6 -6 -6
-6 -6 -6 -6 -6 -6 -6 -6 -6 -6 -6 -6 -6 -6 -6 -6 -6 -6 -6 -6 -6 -6 -6 -6 -6 -6 -6 -6 -6 -6 -6 -6 -6 -6 -6 -6 -6 -6 -6 -6 -6 -6 -6
Wind_Speed
4 4 4 4 4 4 5 5 5 4 5 6 5 5 5 5 5 5 4 4 5 4 4 4 4 3 2 2 2 2 2 2 4 4 2 2 2 3 5 5 6 5 6
4 4 4 4 4 4 4 4 4 4 4 5 5 5 5 5 5 5 5 4 5 5 5 4 3 2 2 2 1 2 2 2 2 4 3 2 2 3 3 4 5 6 6
4 4 4 4 4 4 4 4 4 4 4 4 5 5 5 5 5 5 5 4 4 5 5 5 4 3 3 2 2 2 2 2 2 3 3 2 2 3 3 4 4 4 6
3 4 4 4 4 4 4 4 4 4 4 4 5 4 4 4 4 4 4 4 4 4 4 4 4 4 4 3 3 2 2 1 1 2 3 3 3 2 2 3 4 4 4
3 3 3 3 3 3 3 3 4 4 4 4 4 4 3 4 4 4 5 5 4 4 4 4 4 4 5 4 3 3 2 2 2 2 3 3 3 2 3 3 4 4 4
3 3 3 3 3 3 4 4 4 4 4 4 4 4 4 3 4 5 4 4 4 4 4 3 3 4 4 4 4 4 4 3 3 3 3 4 4 3 2 3 3 4 4
3 3 3 3 3 4 4 4 4 4 4 4 4 4 4 4 5 5 5 3 4 4 4 3 3 3 3 3 3 4 3 4 4 4 4 5 4 3 3 3 3 4 5
3 3 3 3 4 4 4 4 4 4 4 4 4 4 4 4 6 6 5 3 3 3 4 4 4 4 3 3 3 2 2 3 4 3 4 4 4 3 3 3 4 4 4
3 3 3 3 4 4 4 4 4 3 4 4 4 5 5 5 6 6 5 3 3 3 3 3 4 4 4 4 2 2 2 3 4 5 5 5 5 4 3 2 2 3 4
3 3 3 3 4 4 4 4 3 4 4 4 4 4 5 5 6 6 5 3 3 3 3 3 4 4 5 4 3 3 3 3 2 2 3 4 3 4 4 3 2 3 3
2 2 2 3 3 4 4 3 4 3 3 3 3 3 4 5 6 7 6 4 4 3 3 3 3 5 5 5 4 3 4 3 2 2 2 2 2 2 2 2 3 3 3
2 2 2 3 3 3 4 3 4 4 4 4 3 3 3 4 5 6 7 6 4 3 3 3 3 5 5 5 4 4 4 3 2 2 2 2 2 2 2 2 3 3 4
2 2 2 2 2 3 4 4 4 4 4 3 3 3 3 3 3 5 6 6 4 2 2 4 4 4 4 3 4 4 3 2 2 2 3 3 2 2 2 2 2 2 3
2 2 2 2 2 3 3 3 4 4 4 4 4 3 3 2 3 3 3 3 3 2 2 2 3 3 2 2 2 2 2 2 2 3 2 2 1 1 1 1 2 2 2
2 2 2 2 3 3 3 3 3 4 5 4 4 4 4 4 5 5 3 3 2 3 1 1 1 1 1 1 1 1 1 1 2 1 2 1 1 2 2 2 2 2 2
2 2 2 2 2 2 2 1 2 3 4 4 4 4 3 4 4 4 4 4 3 3 1 1 2 2 2 2 2 2 2 2 2 2 2 2 2 2 2 2 1 2 3
3 2 2 2 2 2 2 3 2 1 2 4 4 5 4 4 4 4 4 4 4 4 2 2 3 3 3 2 3 3 3 2 2 2 2 2 2 2 2 2 2 2 3
3 3 3 2 2 3 3 3 3 3 2 2 3 4 4 4 4 4 4 3 3 3 2 3 3 3 3 3 3 3 2 2 2 2 2 2 2 2 2 2 2 2 3
2 2 2 2 2 2 2 2 3 3 3 2 1 2 4 4 4 4 4 2 3 3 2 2 2 2 2 3 3 3 3 3 2 2 2 3 2 2 2 2 2 3 3
2 3 2 2 2 2 2 2 2 3 3 3 3 2 2 1 2 2 2 2 2 2 2 2 2 2 2 2 2 2 2 2 2 2 2 2 2 2 3 3 3 3 3
1 2 3 2 2 2 2 3 3 2 3 2 2 3 3 2 3 3 2 2 2 2 2 2 2 2 2 2 2 2 3 3 3 2 2 2 2 2 2 2 2 2 2
1 1 1 2 2 2 2 2 2 2 2 2 2 2 4 2 2 2 2 2 2 2 2 2 2 2 2 3 3 3 3 3 3 3 2 2 2 2 2 2 2 2 2
1 1 1 1 1 2 1 1 1 2 1 2 1 1 2 2 2 2 2 2 2 1 1 1 2 2 2 2 3 4 4 4 3 3 3 3 3 3 2 3 3 3 3
1 1 1 1 1 1 1 1 1 1 1 1 1 1 2 1 1 1 1 1 1 1 1 1 2 2 2 2 3 3 4 4 4 4 4 3 3 3 2 2 2 3 2
1 1 1 1 1 1 1 1 1 1 1 1 1 1 1 1 1 1 1 1 1 1 1 1 1 2 2 2 2 3 4 4 4 3 3 2 3 3 3 2 2 2 2
1 1 1 1 1 1 1 1 1 1 1 1 1 1 1 1 1 1 1 1 1 1 1 1 1 2 2 2 2 3 3 3 4 4 3 2 2 3 2 2 2 2 2
Wind_Direction
171 173 175 177 174 168 169 172 173 176 172 174 178 183 190 192 188 185 189 187 191 192 194 196 202 200 204 214 218 233 245 240 262 284 288 299 312 316 320 309 307 305 302
174 174 178 174 167 167 169 170 169 174 173 170 173 186 192 192 188 185 189 190 192 194 197 195 204 205 207 208 213 237 251 251 256 277 290 298 296 302 313 315 317 313 306
172 173 171 171 169 168 169 169 169 172 174 174 178 189 194 192 191 189 188 188 194 196 194 195 201 193 207 214 218 233 253 274 273 268 281 292 294 301 316 317 317 316 309
166 170 175 176 174 173 173 171 172 171 177 184 184 189 193 193 191 187 184 188 197 200 197 195 197 198 204 205 218 224 238 262 262 269 278 289 292 299 313 315 317 318 312
165 172 181 174 164 165 172 177 175 176 185 186 179 184 184 185 187 186 190 194 197 203 203 200 201 203 213 213 217 213 213 230 247 257 266 283 286 306 305 308 304 312 310
171 179 179 168 167 172 180 179 177 181 180 174 177 180 182 193 198 203 197 191 194 201 204 209 205 204 221 230 231 230 223 220 230 241 257 261 267 275 291 302 307 312 303
175 180 183 179 180 184 181 178 185 186 175 178 182 185 193 203 208 210 210 192 193 203 203 207 219 221 216 208 226 238 244 250 246 240 246 250 255 260 271 281 286 287 280
178 187 190 186 187 181 181 187 191 185 185 187 191 196 195 209 212 216 215 198 195 206 206 205 205 210 217 211 209 226 238 251 252 245 240 248 253 250 244 260 273 289 289
190 197 198 192 188 183 189 193 192 191 197 195 194 198 198 206 207 209 214 198 203 214 213 203 201 207 224 225 209 219 242 265 266 255 258 256 261 270 273 285 288 300 294
204 205 201 195 190 194 200 201 197 199 201 197 201 202 199 204 209 207 205 190 204 216 216 211 218 223 230 228 211 210 232 251 259 275 271 266 263 264 266 243 235 264 282
199 201 204 199 199 198 201 206 194 198 196 198 204 209 204 207 209 208 204 194 205 210 214 216 223 232 237 239 239 229 238 250 247 251 258 258 256 255 255 245 236 236 252
187 204 215 211 209 202 195 205 198 192 194 199 203 214 210 201 203 212 215 220 221 206 214 217 226 231 239 246 249 239 244 258 238 242 251 254 254 259 264 261 256 254 252
185 206 219 217 211 205 201 205 200 193 195 201 201 210 209 200 205 217 221 225 230 229 225 226 229 227 236 243 237 238 231 217 214 238 246 251 250 250 266 286 290 287 290
195 211 212 209 211 210 208 208 201 198 200 203 205 210 210 203 196 197 207 216 227 243 245 234 232 230 231 231 225 231 221 219 227 235 245 243 244 266 276 283 291 298 302
210 214 213 212 206 209 214 215 214 213 205 206 206 202 201 212 220 220 209 206 206 214 213 215 209 198 210 223 239 231 219 219 239 237 231 241 249 258 271 281 280 287 282
219 222 221 214 211 206 210 228 227 220 220 222 223 219 219 221 219 216 217 217 216 207 185 213 223 220 217 223 234 243 231 228 229 225 225 222 231 247 266 278 278 277 285
223 228 225 221 214 208 208 202 211 246 230 227 226 221 218 212 210 213 212 207 203 192 201 215 221 224 226 227 227 234 239 234 223 219 228 225 224 235 249 262 275 284 284
224 228 224 217 209 206 208 205 200 201 216 234 227 219 214 210 210 213 205 188 198 200 214 224 231 229 227 228 232 236 231 220 219 221 224 224 223 230 243 253 261 272 282
221 221 219 211 208 208 205 200 199 203 207 211 207 217 216 212 210 210 193 195 203 217 230 236 238 235 235 232 229 230 223 221 222 221 225 228 226 229 241 246 253 269 275
224 220 219 208 201 202 202 204 205 205 206 206 211 209 193 197 202 200 201 202 208 217 228 237 240 238 228 223 222 222 224 222 220 225 229 230 230 231 235 237 244 256 265
221 207 206 207 202 203 209 214 208 204 209 213 219 216 206 198 203 205 208 209 213 218 225 231 234 231 224 221 219 220 224 230 228 231 228 228 228 241 242 239 246 254 262
218 202 201 208 208 205 210 211 204 206 210 213 221 220 208 200 200 205 215 218 221 224 224 227 233 230 220 218 216 216 225 232 231 229 230 234 236 238 237 241 246 259 264
198 202 212 216 203 206 212 209 205 207 215 219 214 208 203 202 202 206 217 223 223 228 231 232 236 245 247 234 228 221 222 228 234 230 224 229 235 236 234 236 241 256 259
187 185 185 189 198 201 202 208 204 201 204 214 214 207 204 203 209 214 216 222 220 232 255 246 250 253 259 258 246 234 232 234 228 220 214 217 225 232 234 239 249 251 253
171 169 172 180 198 208 204 203 201 199 203 211 208 209 206 201 206 213 219 217 210 227 258 272 264 260 258 261 254 247 236 227 223 213 202 210 217 223 226 235 245 256 255
142 145 159 169 186 199 205 210 211 201 196 205 209 212 216 211 209 210 210 212 220 245 276 295 290 285 283 273 251 237 240 235 223 217 203 203 209 215 218 230 235 242 242
Height
1449 1451 1453 1455 1458 1460 1462 1464 1466 1468 1469 1471 1472 1474 1475 1477 1478 1479 1480 1482 1483 1484 1485 1486 1487 1488 1488 1488 1489 1489 1489 1489 1488 1487 1487 1487 1486 1485 1484 1483 1481 1479 1477
1447 1449 1451 1453 1455 1457 1459 1461 1462 1464 1466 1467 1469 1470 1472 1473 1474 1476 1476 1478 1479 1480 1481 1482 1483 1484 1484 1485 1485 1485 1486 1485 1485 1483 1483 1483 1482 1481 1480 1479 1478 1476 1474
1445 1446 1448 1450 1452 1453 1455 1457 1459 1460 1462 1464 1465 1467 1468 1470 1471 1472 1473 1474 1475 1476 1477 1478 1479 1480 1480 1481 1481 1482 1482 1482 1481 1481 1479 1479 1478 1478 1476 1475 1474 1473 1471
1442 1443 1445 1447 1449 1450 1452 1454 1455 1457 1458 1460 1461 1463 1465 1466 1467 1469 1470 1471 1472 1473 1473 1474 1475 1476 1476 1477 1477 1478 1478 1478 1478 1477 1476 1475 1475 1474 1473 1472 1470 1469 1467
1439 1441 1442 1444 1446 1447 1449 1450 1452 1453 1455 1456 1458 1459 1461 1462 1463 1465 1466 1467 1468 1469 1469 1470 1471 1472 1472 1473 1473 1474 1474 1474 1474 1473 1472 1472 1471 1470 1469 1468 1467 1465 1464
1436 1438 1440 1441 1443 1444 1446 1447 1449 1450 1451 1453 1454 1455 1457 1458 1459 1461 1462 1463 1463 1464 1465 1466 1467 1467 1468 1469 1470 1470 1471 1470 1470 1470 1469 1468 1467 1467 1466 1465 1464 1462 1460
1434 1435 1437 1438 1439 1441 1442 1444 1445 1446 1448 1449 1450 1452 1453 1454 1456 1457 1458 1459 1459 1460 1461 1462 1462 1463 1464 1465 1465 1466 1466 1466 1467 1467 1465 1465 1464 1463 1463 1462 1461 1459 1458
1431 1433 1434 1435 1436 1437 1438 1440 1441 1443 1444 1445 1446 1448 1449 1450 1452 1453 1454 1455 1456 1456 1457 1458 1459 1459 1460 1461 1461 1462 1462 1462 1462 1462 1462 1461 1461 1460 1460 1459 1458 1456 1455
1429 1430 1431 1432 1432 1433 1435 1436 1437 1439 1440 1441 1442 1444 1445 1446 1448 1449 1450 1451 1451 1452 1453 1454 1454 1455 1456 1457 1457 1457 1457 1458 1458 1458 1458 1458 1457 1457 1457 1456 1454 1453 1451
1426 1427 1428 1428 1429 1430 1431 1432 1434 1435 1436 1437 1438 1440 1441 1442 1444 1445 1446 1446 1447 1448 1449 1449 1450 1451 1452 1453 1453 1453 1453 1453 1453 1453 1454 1453 1453 1453 1453 1452 1451 1450 1448
1423 1424 1425 1425 1426 1427 1428 1429 1430 1431 1432 1433 1434 1436 1437 1438 1440 1441 1442 1442 1443 1444 1444 1445 1446 1447 1448 1449 1449 1449 1449 1449 1449 1449 1449 1449 1449 1449 1448 1448 1447 1447 1446
1420 1421 1422 1422 1423 1424 1425 1426 1427 1427 1428 1429 1430 1431 1433 1434 1436 1437 1438 1439 1440 1440 1440 1441 1442 1443 1444 1444 1444 1444 1445 1445 1445 1445 1445 1445 1445 1444 1444 1444 1443 1443 1442
1417 1418 1418 1419 1420 1421 1422 1422 1423 1424 1424 1425 1426 1427 1428 1430 1432 1433 1434 1435 1436 1436 1437 1438 1438 1439 1440 1440 1440 1440 1441 1441 1441 1441 1441 1441 1441 1441 1440 1440 1439 1439 1438
1414 1414 1415 1416 1417 1417 1418 1419 1419 1420 1420 1421 1422 1424 1425 1426 1428 1429 1430 1431 1432 1433 1434 1434 1435 1435 1436 1436 1436 1436 1437 1438 1438 1438 1437 1437 1437 1437 1437 1436 1435 1435 1434
1410 1411 1412 1412 1413 1414 1414 1415 1416 1416 1417 1418 1419 1420 1421 1422 1424 1425 1426 1427 1428 1429 1429 1430 1431 1431 1431 1432 1432 1433 1433 1434 1434 1434 1434 1434 1433 1433 1433 1433 1432 1432 1431
1406 1407 1408 1408 1409 1410 1410 1411 1412 1413 1414 1415 1416 1418 1418 1420 1421 1422 1423 1424 1425 1425 1426 1426 1426 1427 1427 1428 1428 1429 1430 1430 1430 1430 1430 1430 1430 1430 1430 1429 1429 1429 1428
1403 1403 1404 1405 1405 1406 1407 1407 1408 1409 1411 1412 1413 1414 1415 1417 1418 1419 1420 1420 1421 1422 1422 1422 1423 1423 1424 1424 1425 1426 1426 1427 1427 1427 1427 1427 1427 1427 1426 1426 1426 1426 1425
1400 1400 1401 1401 1402 1403 1404 1404 1405 1405 1406 1408 1409 1411 1412 1413 1414 1415 1416 1417 1417 1418 1418 1419 1419 1420 1420 1421 1422 1422 1423 1423 1423 1424 1424 1424 1424 1424 1423 1423 1423 1423 1422
1396 1397 1397 1398 1399 1400 1401 1401 1402 1403 1404 1405 1406 1407 1409 1410 1411 1412 1413 1413 1413 1413 1414 1415 1416 1416 1417 1418 1419 1419 1420 1420 1420 1420 1421 1421 1421 1421 1420 1420 1420 1420 1419
1393 1394 1394 1395 1396 1396 1398 1398 1399 1400 1401 1402 1403 1404 1405 1406 1406 1408 1409 1409 1410 1410 1411 1412 1412 1413 1414 1415 1415 1416 1416 1417 1417 1417 1417 1418 1418 1418 1418 1418 1417 1417 1416
1390 1391 1391 1392 1393 1393 1394 1395 1396 1397 1398 1399 1400 1401 1402 1403 1403 1404 1405 1406 1407 1407 1408 1409 1409 1410 1411 1411 1412 1412 1413 1413 1414 1414 1414 1414 1415 1415 1415 1415 1414 1414 1414
1387 1388 1388 1389 1389 1390 1391 1392 1393 1394 1395 1396 1397 1398 1399 1400 1400 1401 1402 1403 1404 1404 1405 1406 1406 1406 1407 1408 1408 1409 1409 1409 1410 1410 1411 1411 1411 1411 1411 1412 1412 1411 1411
1384 1385 1385 1386 1387 1388 1388 1389 1390 1391 1392 1393 1394 1394 1395 1396 1397 1398 1399 1400 1400 1401 1402 1402 1402 1403 1403 1404 1405 1405 1406 1406 1407 1407 1407 1408 1408 1408 1408 1408 1408 1408 1408
1382 1382 1383 1383 1384 1385 1386 1387 1388 1389 1389 1390 1391 1392 1392 1393 1394 1395 1396 1396 1397 1398 1398 1399 1399 1399 1400 1401 1401 1402 1403 1403 1404 1404 1404 1404 1405 1405 1405 1405 1405 1405 1405
1379 1380 1380 1381 1382 1382 1383 1384 1385 1386 1387 1388 1388 1389 1390 1391 1391 1392 1393 1393 1394 1394 1395 1395 1396 1396 1397 1397 1398 1399 1399 1400 1400 1401 1401 1401 1402 1402 1402 1402 1402 1402 1402
1377 1378 1378 1379 1380 1380 1381 1382 1383 1384 1385 1386 1386 1387 1388 1388 1389 1389 1390 1391 1391 1391 1392 1392 1393 1393 1394 1394 1395 1396 1396 1397 1397 1398 1398 1398 1399 1399 1399 1399 1399 1399 1399